CW2157 Weather Reports


Display with metric or nautical units.
time (UTC)temp
F
wind
direction
speed
MPH
gust
MPH
rain 1hr
in
rain 24hr
in
rain mn
in
humidity
%
barometer
mb
20260507235705 54 217 7.0 10.0 0.00 0.16 0.16 70 1008.3
20260507235205 54 226 8.0 12.0 0.00 0.16 0.16 70 1008.3
20260507234705 54 220 9.0 12.0 0.00 0.16 0.16 70 1008.3
20260507234205 55 217 9.0 12.0 0.00 0.16 0.16 69 1008.1
20260507233705 55 220 9.0 12.0 0.00 0.16 0.16 69 1008.0
20260507233205 55 213 10.0 14.0 0.00 0.16 0.16 68 1008.0
20260507232205 55 217 10.0 12.0 0.00 0.16 0.16 69 1007.9
20260507231205 56 224 8.0 12.0 0.00 0.16 0.16 69 1007.9
20260507230705 56 212 11.0 14.0 0.00 0.16 0.16 69 1007.8
20260507230205 56 219 12.0 16.0 0.00 0.16 0.16 68 1007.8
20260507224705 57 198 10.0 15.0 0.00 0.16 0.16 68 1007.8
20260507224205 57 207 12.0 15.0 0.00 0.16 0.16 66 1007.8
20260507223705 57 200 12.0 15.0 0.00 0.16 0.16 67 1007.6
20260507223205 57 199 12.0 17.0 0.00 0.16 0.16 67 1007.7
20260507222205 58 202 11.0 14.0 0.00 0.16 0.16 66 1007.6
20260507221705 58 221 9.0 15.0 0.00 0.16 0.16 63 1007.6
20260507221205 58 193 9.0 12.0 0.00 0.16 0.16 62 1007.6
20260507220705 58 218 7.0 10.0 0.00 0.16 0.16 61 1007.7
20260507220205 59 207 6.0 12.0 0.00 0.16 0.16 60 1007.7
20260507215705 59 192 8.0 12.0 0.00 0.16 0.16 61 1007.8
20260507215205 59 213 8.0 12.0 0.00 0.16 0.16 60 1007.9
20260507214705 60 178 8.0 12.0 0.00 0.16 0.16 57 1007.9
20260507214205 60 206 6.0 10.0 0.00 0.16 0.16 60 1007.9
20260507213705 60 203 6.0 8.0 0.00 0.16 0.16 58 1007.9
20260507213205 60 205 5.0 7.0 0.00 0.16 0.16 58 1007.8
20260507212705 60 217 6.0 8.0 0.00 0.16 0.16 58 1007.7
20260507212205 60 177 6.0 8.0 0.00 0.16 0.16 61 1007.8
20260507211705 60 199 5.0 7.0 0.00 0.16 0.16 60 1007.6
20260507211205 60 201 6.0 10.0 0.00 0.16 0.16 60 1007.6
20260507210205 60 195 7.0 10.0 0.00 0.16 0.16 60 1007.9
20260507205705 60 218 7.0 10.0 0.00 0.16 0.16 62 1008.0
20260507205205 60 201 8.0 12.0 0.00 0.16 0.16 61 1007.9
20260507204705 60 193 6.0 10.0 0.00 0.16 0.16 60 1008.0
20260507204205 60 210 6.0 9.0 0.00 0.16 0.16 60 1007.8
20260507203205 60 194 8.0 10.0 0.00 0.16 0.16 61 1007.8
20260507202705 60 207 9.0 10.0 0.00 0.16 0.16 58 1007.7
20260507202205 60 174 0.0 5.0 0.00 0.16 0.16 57 1007.6
20260507201205 60 210 0.0 2.0 0.00 0.16 0.16 55 1007.7
20260507200705 60 256 2.0 3.0 0.00 0.16 0.16 60 1007.8
20260507200205 60 222 3.0 6.0 0.00 0.16 0.16 58 1008.0
20260507195704 60 233 2.0 3.0 0.00 0.16 0.16 56 1007.9
20260507195205 60 25 0.0 3.0 0.00 0.16 0.16 54 1007.3
20260507194705 60 265 0.0 3.0 0.00 0.16 0.16 55 1007.6
20260507194205 60 246 3.0 6.0 0.00 0.16 0.16 56 1008.0
20260507193705 60 229 3.0 7.0 0.00 0.16 0.16 56 1008.1
20260507192705 60 28 0.0 3.0 0.00 0.16 0.16 59 1008.2
20260507192205 59 80 0.0 0.0 0.00 0.16 0.16 53 1008.2
20260507191705 60 77 1.0 5.0 0.00 0.16 0.16 55 1008.2
20260507191205 60 68 5.0 7.0 0.00 0.16 0.16 54 1007.6
20260507185705 59 80 2.0 3.0 0.00 0.16 0.16 55 1008.5
20260507185205 59 75 1.0 7.0 0.00 0.16 0.16 57 1008.5
20260507184705 59 56 5.0 7.0 0.00 0.16 0.16 55 1008.5
20260507183705 59 294 3.0 6.0 0.00 0.16 0.16 55 1009.0
20260507183205 59 21 1.0 3.0 0.00 0.16 0.16 58 1008.8
20260507182205 59 79 1.0 3.0 0.00 0.16 0.16 63 1008.8
20260507181705 58 217 1.0 3.0 0.00 0.16 0.16 58 1008.9
20260507181205 58 359 1.0 3.0 0.00 0.16 0.16 62 1008.9
20260507180705 58 87 1.0 3.0 0.00 0.16 0.16 64 1008.9
20260507180204 58 55 1.0 3.0 0.00 0.16 0.16 66 1009.2
20260507175705 57 76 1.0 3.0 0.00 0.16 0.16 61 1009.4
20260507175204 57 53 3.0 5.0 0.00 0.16 0.16 66 1009.2
20260507174705 57 5 0.0 3.0 0.00 0.16 0.16 65 1009.6
20260507174205 57 24 1.0 5.0 0.00 0.16 0.16 66 1009.4
20260507173705 57 354 1.0 3.0 0.00 0.16 0.16 68 1009.7
20260507173205 57 351 1.0 3.0 0.00 0.16 0.16 68 1009.7
20260507172705 57 309 2.0 3.0 0.00 0.16 0.16 67 1009.7
20260507172205 57 346 3.0 5.0 0.00 0.16 0.16 61 1009.4
20260507170705 57 335 4.0 7.0 0.00 0.16 0.16 63 1009.5
20260507170205 57 356 2.0 5.0 0.00 0.16 0.16 64 1009.7
20260507165705 57 345 2.0 7.0 0.00 0.16 0.16 61 1009.7
20260507165204 57 335 3.0 6.0 0.00 0.16 0.16 60 1009.8
20260507164705 57 353 1.0 3.0 0.00 0.16 0.16 61 1010.0
20260507164205 57 37 1.0 3.0 0.00 0.16 0.16 61 1010.1
20260507163705 57 344 3.0 9.0 0.00 0.16 0.16 61 1010.2
20260507163204 57 321 2.0 8.0 0.00 0.16 0.16 61 1010.0
20260507162705 57 351 5.0 9.0 0.00 0.16 0.16 60 1010.0
20260507161705 57 1 2.0 5.0 0.00 0.16 0.16 63 1010.4
20260507161205 56 11 3.0 7.0 0.00 0.16 0.16 62 1010.3
20260507160705 56 2 1.0 6.0 0.00 0.17 0.16 62 1010.5
20260507155705 56 356 0.0 3.0 0.00 0.18 0.16 60 1010.6
20260507155205 57 337 2.0 5.0 0.00 0.18 0.16 59 1010.4
20260507154705 57 8 2.0 7.0 0.00 0.18 0.16 60 1010.6
20260507154205 57 8 1.0 7.0 0.00 0.18 0.16 58 1010.5
20260507153205 57 15 3.0 9.0 0.00 0.18 0.16 59 1010.5
20260507152204 57 28 5.0 10.0 0.00 0.18 0.16 60 1010.7
20260507151705 57 28 5.0 10.0 0.00 0.18 0.16 60 1010.7
20260507151205 57 28 5.0 10.0 0.00 0.19 0.16 59 1010.6
20260507150705 57 306 1.0 6.0 0.00 0.19 0.16 58 1010.7
20260507150205 57 344 5.0 10.0 0.00 0.19 0.16 59 1010.7
20260507145705 57 14 2.0 7.0 0.00 0.20 0.16 58 1010.8
20260507145205 57 350 3.0 9.0 0.00 0.20 0.16 58 1010.9
20260507144705 57 24 3.0 12.0 0.00 0.21 0.16 59 1010.9
20260507144205 57 11 4.0 8.0 0.00 0.21 0.16 61 1010.9
20260507143205 57 24 7.0 12.0 0.00 0.21 0.16 59 1011.0
20260507142705 57 341 5.0 10.0 0.00 0.21 0.16 59 1011.0
20260507142205 57 343 4.0 12.0 0.00 0.21 0.16 60 1010.9
20260507141705 57 6 5.0 10.0 0.00 0.21 0.16 61 1011.0
20260507141204 57 6 5.0 12.0 0.00 0.21 0.16 60 1010.9
20260507140705 57 27 1.0 12.0 0.00 0.21 0.16 62 1010.9
20260507140205 57 28 3.0 10.0 0.00 0.21 0.16 60 1010.9
20260507135705 57 12 5.0 10.0 0.00 0.21 0.16 62 1010.9
20260507135205 57 352 3.0 12.0 0.00 0.21 0.16 62 1010.8
20260507134705 57 357 5.0 12.0 0.00 0.21 0.16 61 1010.8
20260507134204 57 357 6.0 12.0 0.00 0.21 0.16 62 1010.9
20260507133705 57 351 3.0 7.0 0.00 0.21 0.16 61 1010.9
20260507133205 58 20 4.0 10.0 0.00 0.21 0.16 62 1011.0
20260507132205 58 336 3.0 8.0 0.00 0.21 0.16 66 1011.0
20260507131205 57 339 4.0 8.0 0.00 0.21 0.16 68 1010.8
20260507130705 57 4 3.0 8.0 0.00 0.21 0.16 67 1010.7
20260507130205 57 12 3.0 10.0 0.00 0.21 0.16 69 1010.9
20260507125705 57 18 3.0 8.0 0.00 0.21 0.16 73 1010.7
20260507124705 57 20 3.0 6.0 0.00 0.21 0.16 81 1010.7
20260507124205 56 0 1.0 5.0 0.00 0.21 0.16 81 1011.1
20260507123704 56 46 1.0 3.0 0.00 0.21 0.16 81 1011.0
20260507123205 56 33 3.0 5.0 0.00 0.21 0.16 82 1010.7
20260507122706 56 36 2.0 5.0 0.00 0.21 0.16 82 1010.8
20260507122205 55 28 2.0 8.0 0.00 0.21 0.16 82 1010.8
20260507121705 55 41 2.0 5.0 0.00 0.21 0.16 83 1010.8
20260507121205 55 66 2.0 3.0 0.00 0.21 0.16 83 1010.9
20260507120705 55 51 1.0 6.0 0.00 0.21 0.16 83 1010.7
20260507120205 55 11 1.0 5.0 0.00 0.21 0.16 83 1010.8
20260507115705 55 47 3.0 5.0 0.00 0.21 0.16 83 1010.7
20260507115205 55 52 2.0 3.0 0.00 0.21 0.16 83 1010.7
20260507114705 55 65 3.0 5.0 0.00 0.21 0.16 83 1010.5
20260507114205 55 60 3.0 6.0 0.00 0.21 0.16 84 1010.6
20260507113205 54 25 1.0 3.0 0.01 0.21 0.16 84 1010.7
20260507112205 54 63 2.0 5.0 0.01 0.21 0.16 84 1010.6
20260507111705 54 45 3.0 6.0 0.01 0.21 0.16 83 1010.6
20260507111204 54 42 1.0 3.0 0.01 0.21 0.16 83 1010.7
20260507110705 54 47 3.0 9.0 0.01 0.21 0.16 83 1010.6
20260507110204 54 59 3.0 6.0 0.01 0.21 0.16 83 1010.5
20260507105705 54 36 3.0 9.0 0.01 0.21 0.16 83 1010.5
20260507105204 54 9 3.0 7.0 0.01 0.21 0.16 83 1010.4
20260507104205 54 39 3.0 7.0 0.01 0.21 0.16 84 1010.1
20260507103705 54 39 4.0 8.0 0.01 0.21 0.16 85 1010.0
20260507103204 54 36 5.0 8.0 0.00 0.20 0.15 85 1010.0
20260507102705 54 54 4.0 6.0 0.00 0.20 0.15 86 1010.1
20260507102205 54 46 4.0 7.0 0.00 0.20 0.15 85 1010.0
20260507101705 54 52 3.0 5.0 0.00 0.20 0.15 85 1009.8
20260507101204 54 38 4.0 9.0 0.00 0.20 0.15 86 1009.9
20260507100705 54 340 5.0 7.0 0.00 0.20 0.15 86 1009.9
20260507100205 54 13 3.0 7.0 0.00 0.20 0.15 86 1009.9
20260507095205 54 50 2.0 8.0 0.00 0.20 0.15 87 1010.0
20260507094705 54 50 3.0 6.0 0.00 0.20 0.15 87 1010.0
20260507094205 55 45 5.0 6.0 0.00 0.20 0.15 86 1009.8
20260507093705 55 37 2.0 6.0 0.00 0.20 0.15 85 1009.9
20260507093205 55 345 3.0 6.0 0.00 0.20 0.15 85 1009.9
20260507092205 55 354 3.0 8.0 0.00 0.20 0.15 83 1009.9
20260507091705 55 12 5.0 12.0 0.00 0.20 0.15 85 1009.9
20260507091205 56 1 5.0 12.0 0.00 0.20 0.15 86 1009.8
20260507090704 56 22 5.0 10.0 0.00 0.20 0.15 86 1009.7
20260507090205 56 342 5.0 12.0 0.00 0.20 0.15 86 1009.7
20260507085705 56 22 6.0 12.0 0.00 0.20 0.15 86 1009.6
20260507084704 56 12 4.0 12.0 0.00 0.20 0.15 87 1010.0
20260507084205 56 22 2.0 6.0 0.00 0.20 0.15 87 1009.5
20260507083704 56 9 6.0 12.0 0.00 0.20 0.15 87 1009.5
20260507082705 57 36 7.0 13.0 0.00 0.20 0.15 88 1009.2
20260507082205 57 34 5.0 12.0 0.00 0.20 0.15 88 1009.0
20260507081704 57 322 2.0 6.0 0.00 0.20 0.15 87 1009.0
20260507081205 57 351 3.0 14.0 0.00 0.20 0.15 87 1009.0
20260507080705 57 349 6.0 16.0 0.00 0.20 0.15 87 1008.8
20260507075205 57 344 5.0 12.0 0.00 0.20 0.15 88 1008.6
20260507074704 57 358 4.0 12.0 0.00 0.20 0.15 88 1008.8
20260507074204 57 3 3.0 14.0 0.00 0.20 0.15 88 1009.0
20260507073704 57 349 7.0 12.0 0.00 0.20 0.15 88 1008.9
20260507073205 57 357 4.0 12.0 0.00 0.20 0.15 89 1008.6
20260507072705 57 14 6.0 13.0 0.00 0.20 0.15 89 1008.2
20260507072204 57 344 6.0 13.0 0.00 0.20 0.15 89 1008.3
20260507071705 57 352 3.0 10.0 0.00 0.20 0.15 89 1008.3
20260507071205 57 17 4.0 12.0 0.01 0.20 0.15 89 1008.4
20260507070704 57 11 4.0 12.0 0.01 0.20 0.15 89 1008.6
20260507065704 58 358 4.0 10.0 0.01 0.20 0.15 89 1008.4
20260507065205 58 347 5.0 12.0 0.02 0.20 0.15 89 1008.1
20260507064705 58 358 4.0 12.0 0.04 0.20 0.15 89 1007.6
20260507064205 58 353 7.0 14.0 0.05 0.20 0.15 89 1007.5
20260507063704 59 20 5.0 10.0 0.07 0.20 0.15 89 1007.6
20260507063205 59 8 4.0 9.0 0.11 0.20 0.15 89 1007.6
20260507062704 59 6 4.0 9.0 0.12 0.20 0.15 89 1007.6
20260507062204 59 337 6.0 10.0 0.13 0.20 0.15 88 1007.7
20260507061705 59 3 6.0 12.0 0.15 0.20 0.15 88 1007.7
20260507061205 59 340 3.0 12.0 0.14 0.19 0.14 88 1008.2
20260507060704 60 317 6.0 12.0 0.14 0.19 0.14 87 1008.3
20260507060204 60 327 5.0 9.0 0.14 0.19 0.14 86 1008.1
20260507055205 61 53 6.0 12.0 0.13 0.18 0.13 86 1007.6
20260507054705 62 8 4.0 9.0 0.11 0.16 0.11 86 1007.9
20260507053705 63 343 2.0 3.0 0.08 0.13 0.08 85 1008.6
20260507053204 63 341 2.0 6.0 0.04 0.09 0.04 84 1008.6
20260507051705 64 358 3.0 7.0 0.00 0.05 0.00 79 1008.0
20260507051204 64 342 5.0 15.0 0.00 0.05 0.00 78 1008.4
20260507050704 65 337 3.0 6.0 0.00 0.05 0.00 78 1008.5
20260507050204 65 294 1.0 5.0 0.00 0.05 0.00 78 1008.6
20260507045704 65 305 2.0 5.0 0.00 0.05 0.00 79 1008.5
20260507045204 65 303 3.0 7.0 0.00 0.05 0.00 81 1008.2
20260507044705 65 232 3.0 5.0 0.00 0.05 0.00 82 1008.4
20260507044205 65 330 3.0 8.0 0.00 0.05 0.00 82 1008.1
20260507043705 65 19 5.0 8.0 0.00 0.05 0.00 84 1008.0
20260507042704 65 352 2.0 3.0 0.00 0.05 0.00 86 1008.0
20260507042205 65 277 1.0 3.0 0.00 0.05 0.00 87 1008.0
20260507041705 65 225 2.0 5.0 0.00 0.05 0.00 87 1007.9
20260507041205 65 228 2.0 5.0 0.00 0.05 0.00 87 1007.7
20260507040705 65 235 1.0 3.0 0.00 0.05 0.00 87 1007.7
20260507040205 65 325 5.0 14.0 0.00 0.05 0.00 88 1007.6
20260507035704 65 238 1.0 5.0 0.00 0.05 0.05 88 1007.7
20260507034704 65 203 4.0 5.0 0.00 0.05 0.05 88 1007.5
20260507034204 65 211 3.0 5.0 0.00 0.05 0.05 88 1007.6
20260507033704 65 215 5.0 5.0 0.00 0.05 0.05 88 1007.5
20260507033205 65 216 3.0 5.0 0.00 0.05 0.05 88 1007.4
20260507032704 65 221 5.0 5.0 0.00 0.05 0.05 88 1007.4
20260507032204 65 213 3.0 3.0 0.00 0.05 0.05 88 1007.2
20260507031704 65 219 2.0 3.0 0.00 0.05 0.05 88 1007.2
20260507030205 64 210 3.0 5.0 0.00 0.05 0.05 89 1007.1
20260507025704 64 218 2.0 5.0 0.00 0.05 0.05 89 1007.2
20260507024705 64 195 4.0 7.0 0.00 0.05 0.05 89 1007.0
20260507024205 64 189 5.0 6.0 0.00 0.05 0.05 89 1007.1
20260507023705 64 184 5.0 7.0 0.00 0.05 0.05 89 1007.3
20260507022704 64 204 5.0 7.0 0.00 0.05 0.05 89 1007.5
20260507022205 64 210 4.0 6.0 0.00 0.05 0.05 89 1007.5
20260507021705 64 188 2.0 3.0 0.00 0.05 0.05 89 1007.5
20260507021204 64 204 2.0 3.0 0.00 0.05 0.05 89 1007.4
20260507020705 64 178 2.0 3.0 0.00 0.05 0.05 89 1007.4
20260507020204 64 169 0.0 1.0 0.00 0.05 0.05 89 1007.5
20260507015705 64 169 2.0 3.0 0.00 0.05 0.05 89 1007.5
20260507015204 64 239 1.0 2.0 0.00 0.05 0.05 88 1007.6
20260507014704 64 239 0.0 1.0 0.00 0.05 0.05 88 1007.7
20260507013704 64 239 0.0 0.0 0.00 0.05 0.05 88 1007.8
20260507013204 64 239 1.0 3.0 0.00 0.05 0.05 87 1008.0
20260507012705 64 233 3.0 5.0 0.00 0.05 0.05 87 1008.1
20260507012205 64 231 2.0 3.0 0.00 0.05 0.05 87 1008.1
20260507011704 64 227 1.0 3.0 0.00 0.05 0.05 86 1008.0
20260507010204 64 233 3.0 5.0 0.00 0.05 0.05 85 1007.5
20260507005704 65 226 2.0 3.0 0.00 0.05 0.05 85 1007.7
20260507005205 65 202 1.0 3.0 0.00 0.05 0.05 84 1007.3
20260507004704 65 194 1.0 3.0 0.00 0.05 0.05 82 1007.4
20260507004205 65 158 2.0 2.0 0.00 0.05 0.05 83 1007.4
20260507003704 65 242 0.0 0.0 0.00 0.05 0.05 83 1007.4
20260507003204 65 242 0.0 1.0 0.00 0.05 0.05 83 1007.4
20260507002704 66 242 2.0 3.0 0.00 0.05 0.05 83 1007.3
20260507002204 66 219 4.0 7.0 0.00 0.05 0.05 82 1007.2
20260507001205 67 222 5.0 5.0 0.00 0.05 0.05 81 1007.1
20260507000705 67 226 5.0 6.0 0.00 0.05 0.05 81 1007.2
20260507000205 67 230 6.0 7.0 0.00 0.05 0.05 80 1007.2